#timestamp,LO_Frequency,Hit 
1497582015.5,286047001.2,N
1497582035.3,286046996.0,N
1497582055.1,286046992.7,N
1497582075.8,286046993.1,N
1497582095.7,286046992.7,N
1497582115.5,286047001.2,N
1497582135.3,286047001.3,N
1497582155.2,286046999.6,N
1497582175.9,286046999.2,N
1497582195.7,286046999.6,N
1497582215.6,286046998.1,N
1497582235.4,286046996.8,N
1497582255.2,286046998.4,N
1497582275.1,286046997.6,N
1497582276.0,286046997.6,N
1497582295.8,286046997.2,N
1497582315.6,286046993.4,N
1497582335.5,286046996.0,N
1497582355.3,286046998.9,N
1497582375.1,286047006.7,N
1497582395.9,286047012.3,Y
1497582415.7,286047003.6,N
1497582435.5,286046998.3,N
1497582455.3,286046997.1,N
1497582475.2,286046994.2,N
1497582495.0,286046992.8,N
1497582495.9,286046992.8,N
1497582515.7,286046995.8,N
1497582535.6,286046996.9,N
1497582555.4,286046997.6,N
1497582575.2,286046996.4,N
1497582595.1,286046998.8,N
1497582596.0,286046998.8,N
1497582615.8,286046996.4,N
1497582635.6,286046994.8,N
1497582655.5,286046996.5,N
1497582675.3,286046999.9,N
1497582695.1,286047002.2,N
1497582715.9,286047002.6,N
1497582735.7,286047006.1,N
1497582755.5,286047008.5,N
1497582775.3,286047002.9,N
1497582795.2,286047004.4,N
1497582815.0,286047003.7,N
1497582815.9,286047003.7,N
1497582835.7,286047005.5,N
1497582855.6,286047004.9,N
1497582875.4,286047001.3,N
1497582895.2,286047005.2,N
1497582915.1,286047010.4,N
1497582916.0,286047010.4,N
1497582935.8,286047012.1,Y
1497582955.6,286047009.1,N
1497582975.5,286046998.2,N
1497582995.3,286047002.1,N
1497583015.1,286046997.0,N
1497583035.9,286046995.3,N
1497583055.7,286047007.4,N
1497583075.5,286047004.0,N
1497583095.4,286046999.5,N
1497583115.2,286046997.5,N
1497583135.0,286047002.1,N
1497583135.9,286047002.1,N
1497583155.8,286047001.3,N
1497583175.6,286046998.3,N
1497583195.4,286046997.0,N
1497583215.2,286046998.0,N
1497583235.1,286046992.0,N
1497583236.0,286046992.0,N
1497583255.8,286046995.9,N
1497583275.6,286046990.2,N
1497583295.5,286046989.7,N
1497583315.3,286046992.4,N
1497583335.1,286046995.5,N
1497583355.9,286046995.9,N
1497583375.7,286047002.0,N
1497583395.5,286046997.4,N
1497583415.4,286046994.2,N
1497583435.2,286046993.2,N
1497583455.0,286046992.2,N
1497583455.9,286046992.2,N
1497583475.8,286046998.4,N
1497583495.6,286046996.2,N
1497583515.4,286046997.0,N
1497583535.2,286047000.7,N
1497583555.1,286046995.1,N
1497583556.0,286046995.1,N
1497583575.8,286046992.2,N
1497583595.6,286046991.0,N
1497583615.5,286046990.1,N
1497583635.3,286046993.7,N
1497583655.1,286046990.2,N
1497583675.9,286046991.5,N
1497583695.7,286046995.6,N
1497583715.5,286046995.7,N
1497583735.4,286046992.6,N
1497583755.2,286046994.5,N
1497583775.0,286046995.1,N
1497583775.9,286046995.1,N
1497583795.8,286046997.7,N
1497583815.6,286047000.1,N
1497583835.4,286047002.9,N
1497583855.3,286047005.2,N
1497583875.1,286047004.7,N
1497583876.0,286047004.7,N
1497583895.8,286047008.5,N
1497583915.6,286047005.3,N
1497583935.5,286047002.6,N
1497583955.3,286046996.2,N
1497583975.1,286046992.2,N
1497583995.9,286046997.9,N
1497584015.7,286047002.5,N
1497584035.5,286047002.9,N
1497584055.4,286047008.3,N
1497584075.2,286047002.0,N
1497584095.0,286046995.6,N
1497584095.9,286046995.6,N
1497584115.8,286046994.5,N
1497584135.6,286047000.6,N
1497584155.4,286047005.7,N
1497584175.3,286047002.7,N
1497584195.1,286046993.3,N
1497584196.0,286046993.3,N
1497584215.8,286046991.6,N
1497584235.7,286046991.1,N
1497584255.5,286046997.5,N
1497584275.3,286047000.2,N
1497584295.1,286047001.0,N
1497584315.9,286047000.8,N
1497584335.7,286047003.0,N
1497584355.5,286047006.0,N
1497584375.4,286047008.9,N
1497584395.2,286047006.3,N
1497584415.0,286047005.5,N
1497584415.9,286047005.5,N
1497584435.8,286047007.3,N
1497584455.6,286047007.3,N
1497584475.4,286047003.3,N
1497584495.3,286047007.2,N
1497584515.1,286047005.1,N
1497584516.0,286047005.1,N
1497584535.8,286047004.9,N
1497584555.7,286047008.5,N
1497584575.5,286047012.4,N
1497584595.3,286047007.7,N
1497584615.1,286047006.4,N
1497584635.9,286047005.1,N
1497584655.7,286047008.2,N
1497584675.5,286047009.7,N
1497584695.4,286047006.3,N
1497584715.2,286047001.6,N
1497584735.0,286047002.4,N
1497584735.9,286047002.4,N
1497584755.8,286046994.2,N
1497584775.6,286046992.9,N
1497584795.4,286046993.2,N
1497584815.3,286046992.3,N
1497584835.1,286046989.8,N
1497584836.0,286046989.8,N
1497584855.8,286046994.4,N
1497584875.7,286046991.1,N
1497584895.5,286046986.0,N
1497584915.3,286046985.3,N
1497584935.1,286046988.7,N
1497584955.9,286046991.2,N
1497584975.7,286046996.0,N
1497584995.5,286046997.1,N
1497585015.4,286047001.0,N
1497585035.2,286047000.8,N
1497585055.0,286047000.4,N
1497585055.9,286047000.4,N
1497585075.8,286047003.8,N
1497585095.6,286047005.2,N
1497585115.4,286047006.5,N
1497585135.3,286047009.6,N
1497585155.1,286047008.3,N
1497585156.0,286047008.3,N
1497585175.8,286047006.7,N
1497585195.6,286047007.1,N
1497585215.5,286047002.3,N
1497585235.3,286046995.1,N
1497585255.1,286046995.4,N
1497585275.9,286046997.8,N
1497585295.7,286046995.4,N
1497585315.5,286046994.4,N
1497585335.4,286046991.9,N
1497585355.2,286046994.6,N
1497585375.0,286046999.4,N
1497585375.9,286046999.4,N
1497585395.8,286046995.1,N
1497585415.6,286046993.6,N
1497585435.4,286046994.9,N
1497585455.2,286047000.9,N
1497585475.1,286046997.1,N
1497585476.0,286046997.1,N
1497585495.8,286046998.6,N
1497585515.6,286047002.2,N
1497585535.5,286047000.5,N
1497585555.3,286046998.6,N
1497585575.1,286046999.4,N
1497585595.9,286046999.9,N
